Change the Weather History Date:

Tuesday, September 17, 2013

  Actual Average Record
Temperature  
Mean Temperature 66 °F 66 °F  
Max Temperature 75 °F 80 °F 96 °F (1895)
Min Temperature 57 °F 52 °F 32 °F (2006)
Degree Days  
Heating Degree Days 0 2  
Month to date heating degree days 11 18  
Since 1 July heating degree days 11 21  
Cooling Degree Days 1 3  
Month to date cooling degree days 126 83  
Year to date cooling degree days 1252 1102  
Growing Degree Days 15 (Base 50)    
Moisture  
Dew Point 53 °F    
Average Humidity 64    
Maximum Humidity 84    
Minimum Humidity 44    
Precipitation  
Precipitation 0.07 in 0.04 in 0.62 in (2007)
Month to date precipitation 2.31 0.65  
Year to date precipitation 8.28 6.50  
Snow  
Snow 0.00 in 0.00 in T in (2001)
Month to date snowfall 0.0 0.0  
Since 1 July snowfall 0.0 0.0  
Since 1 September snowfall 0.0 0.0  
Snow Depth 0.00 in    
Sea Level Pressure  
Sea Level Pressure 29.83 in    
Wind  
Wind Speed 10 mph (ESE)    
Max Wind Speed 23 mph    
Max Gust Speed 31 mph    
Visibility 10 miles    
Events Rain , Thunderstorm    
T = Trace of Precipitation, MM = Missing Value Source: NWS Daily Summary

Daily Weather History Graph

Daily Weather History Graph

Search for Another Location

Airport or City:

Trip Planner

Search our weather history database for the weather conditions in past years. The results will help you decide how hot, cold, wet, or windy it might be!

Date:

Astronomy

Sep. 17, 2013 Rise Set
Actual Time 6:57 AM MDT 7:18 PM MDT
Civil Twilight 6:30 AM MDT 7:45 PM MDT
Nautical Twilight 5:59 AM MDT 8:16 PM MDT
Astronomical Twilight 5:27 AM MDT 8:48 PM MDT
Moon 6:07 PM MDT (9/17) 4:56 AM MDT (9/17)
Length of Visible Light 13h 14m
Length of Day
12h 21m
Waxing Gibbous, 96% of the Moon is Illuminated
Sep 17
Waxing Gibbous
Sep 19
Full
Sep 26
Last Quarter
Oct 4
New
Oct 11
First Quarter

Hourly Weather History & Observations

Time (MDT) Temp. Dew Point Humidity Pressure Visibility Wind Dir Wind Speed Gust Speed Precip Events Conditions
12:53 AM 64.0 °F 52.0 °F 65% 29.91 in 10.0 mi ESE 11.5 mph - N/A   Clear
1:53 AM 63.0 °F 50.0 °F 63% 29.91 in 10.0 mi East 16.1 mph - N/A   Clear
2:53 AM 62.1 °F 48.9 °F 62% 29.90 in 10.0 mi ESE 13.8 mph - N/A   Clear
3:53 AM 57.9 °F 51.1 °F 78% 29.90 in 10.0 mi ESE 9.2 mph - N/A   Clear
4:53 AM 57.0 °F 51.1 °F 81% 29.91 in 10.0 mi ESE 11.5 mph - N/A   Clear
5:53 AM 57.9 °F 48.9 °F 72% 29.91 in 10.0 mi ESE 10.4 mph - N/A   Clear
6:53 AM 57.0 °F 48.9 °F 74% 29.92 in 10.0 mi ESE 8.1 mph - N/A   Partly Cloudy
7:53 AM 63.0 °F 48.0 °F 58% 29.93 in 10.0 mi SE 20.7 mph 27.6 mph N/A   Scattered Clouds
8:53 AM 66.0 °F 50.0 °F 56% 29.92 in 10.0 mi SE 13.8 mph - N/A   Scattered Clouds
9:53 AM 66.9 °F 50.0 °F 54% 29.92 in 10.0 mi ESE 8.1 mph - N/A   Scattered Clouds
10:53 AM 71.1 °F 50.0 °F 47% 29.88 in 10.0 mi ESE 6.9 mph - N/A   Scattered Clouds
11:53 AM 73.0 °F 50.0 °F 44% 29.84 in 10.0 mi Calm Calm - N/A   Mostly Cloudy
12:53 PM 69.1 °F 55.0 °F 61% 29.85 in 10.0 mi WNW 13.8 mph - N/A Rain Light Rain
1:53 PM 68.0 °F 55.9 °F 65% 29.83 in 10.0 mi North 9.2 mph - 0.00 in   Overcast
2:34 PM 64.4 °F 59.0 °F 83% 29.98 in 7.0 mi NNW 19.6 mph 24.2 mph N/A Rain , Thunderstorm Heavy Thunderstorms and Rain
2:53 PM 66.0 °F 57.9 °F 75% 29.81 in 9.0 mi North 11.5 mph - N/A Rain , Thunderstorm Light Thunderstorms and Rain
3:10 PM 71.6 °F 60.8 °F 69% 29.95 in 10.0 mi NE 10.4 mph - 0.00 in   Scattered Clouds
3:53 PM 69.1 °F 57.9 °F 68% 29.79 in 10.0 mi ESE 13.8 mph - 0.00 in   Partly Cloudy
4:53 PM 72.0 °F 57.0 °F 59% 29.76 in 10.0 mi South 3.5 mph - N/A   Clear
5:53 PM 73.9 °F 57.0 °F 55% 29.72 in 10.0 mi Calm Calm - N/A   Clear
6:53 PM 69.1 °F 60.1 °F 73% 29.72 in 10.0 mi South 8.1 mph - N/A   Clear
7:53 PM 66.0 °F 59.0 °F 78% 29.70 in 10.0 mi SSE 5.8 mph - N/A   Clear
8:53 PM 63.0 °F 57.0 °F 81% 29.71 in 10.0 mi ESE 8.1 mph - N/A   Clear
9:53 PM 66.2 °F 53.6 °F 64% 29.68 in 10.0 mi East 11.5 mph - N/A   Clear
10:53 PM 69.1 °F 53.1 °F 57% 29.67 in 10.0 mi ESE 17.3 mph - N/A   Clear
11:53 PM 68.0 °F 53.1 °F 59% 29.68 in 10.0 mi East 12.7 mph - N/A   Clear